[[{"header":{"parameterUnit":"m.s-1","parameterCategory":1,"la1":30.2991,"la2":30.254,"lo1":-89.0895,"lo2":-89.0444,"dy":0.0017,"dx":0.0017,"nx":28,"ny":28,"refTime":"2025-01-14T09:00:00:Z","depth":0,"parameterNumber":2,"parameterNumberName":"U-component_of_WINDS"},"data":[0,0,0,0,0,0,0,0,0,0,0,0,0,0,0,0,0,0,0,0,0,0,0,0,0,0,0,0,0,0,0,0,0,0,0,0,0,0,0,0,0,0,0,0,0,0,0,0,0,0,0,0,0,0,0,0,0,0,-1.4434,-1.4435,0,-1.448,-1.448,-1.4481,-1.4426,-1.4424,-1.4422,-1.4421,-1.447,-1.4473,-1.4476,0,0,0,0,0,0,0,0,0,0,0,0,0,-1.4302,-1.4304,-1.4434,-1.4435,-1.4435,-1.4479,-1.448,-1.4481,-1.4427,-1.4424,-1.4422,-1.442,-1.4469,-1.4472,-1.4476,0,0,0,0,0,0,0,0,0,0,0,0,0,-1.4355,-1.4305,-1.4434,-1.4414,-1.4412,-1.4479,-1.448,-1.4481,-1.4427,-1.4424,-1.4421,-1.4418,-1.4467,-1.4472,-1.4477,-1.4567,0,0,-1.4491,-1.4493,0,0,0,0,0,0,0,0,-1.4352,-1.4359,-1.4416,-1.4415,-1.4414,-1.4444,-1.4451,-1.451,-1.4428,-1.4422,-1.442,-1.4417,-1.4464,-1.4469,-1.4484,-1.4569,-1.4571,-1.4492,-1.4495,-1.4497,-1.4498,0,0,0,0,0,0,0,-1.4348,-1.4357,-1.4452,-1.4417,-1.4415,-1.4403,-1.4407,-1.4462,-1.4459,-1.4422,-1.4418,-1.4424,-1.4463,-1.448,-1.4485,-1.4572,-1.4492,-1.4496,-1.4499,-1.4501,-1.4733,-1.4736,0,0,0,0,0,0,-1.4346,-1.4355,-1.4451,-1.4453,-1.4374,-1.4407,-1.4412,-1.4438,-1.4459,-1.4459,-1.4427,-1.4421,-1.4473,-1.4479,-1.4486,-1.4594,-1.4497,-1.4501,-1.4504,-1.473,-1.4734,-1.4737,0,0,0,0,0,0,-1.4344,-1.4356,-1.4449,-1.4403,-1.4414,-1.4413,-1.4442,-1.444,-1.4457,-1.4462,-1.4461,-1.4445,-1.4471,-1.448,-1.4547,-1.4595,-1.4503,-1.4508,-1.4726,-1.4731,-1.4736,-1.4809,0,0,0,0,0,0,-1.434,-1.4355,-1.4389,-1.4404,-1.4416,-1.4509,-1.4445,-1.4443,-1.4465,-1.4459,-1.4479,-1.4479,-1.4469,-1.454,-1.4552,-1.46,-1.4511,-1.4722,-1.4728,-1.4734,-1.4803,-1.4816,-1.4828,0,0,0,0,0,-1.4336,-1.4409,-1.4391,-1.4403,-1.4459,-1.4512,-1.4519,-1.4505,-1.4469,-1.4504,-1.4507,-1.4478,-1.4587,-1.4548,-1.456,-1.461,-1.4719,-1.4726,-1.4734,-1.4797,-1.4813,-1.4827,0,0,0,0,0,0,-1.4401,-1.441,-1.4391,-1.4471,-1.4491,-1.4503,-1.4546,-1.4523,-1.4554,-1.4547,-1.4529,-1.4534,-1.4606,-1.4614,-1.4571,-1.4698,-1.4647,-1.4657,-1.4691,-1.4706,-1.4719,-1.4716,-1.4515,0,0,0,0,0,-1.4424,-1.4466,-1.4472,-1.4542,-1.4552,-1.4547,-1.457,-1.4557,-1.4578,-1.4586,-1.4594,-1.4615,-1.4654,-1.468,-1.4716,-1.4802,-1.4806,-1.4843,-1.4855,-1.4865,-1.4875,-1.4922,-1.4938,-1.4762,-1.4762,-1.4762,0,0,-1.4474,-1.4484,-1.4512,-1.4555,-1.4569,-1.4613,-1.4555,-1.4604,-1.4637,-1.4594,-1.4658,-1.4664,-1.4687,-1.4764,-1.4799,-1.4773,-1.4924,-1.4875,-1.4883,-1.4888,-1.4931,-1.4948,-1.4963,-1.4767,-1.4766,-1.4765,0,0,-1.4587,-1.4598,-1.4658,-1.4672,-1.4693,-1.4689,-1.4703,-1.4718,-1.472,-1.4784,-1.4753,-1.4791,-1.4858,-1.4875,-1.4893,-1.501,-1.4985,-1.5022,-1.5088,-1.5133,-1.5147,-1.516,-1.5202,-1.5218,-1.5031,-1.5031,-1.5031,0,-1.4646,-1.471,-1.4691,-1.4742,-1.4763,-1.4724,-1.4784,-1.4799,-1.4832,-1.4847,-1.4817,-1.49,-1.4912,-1.4993,-1.5021,-1.5036,-1.5053,-1.5021,-1.5147,-1.5159,-1.517,-1.5211,-1.5227,-1.5036,-1.5035,-1.5035,-1.5034,0,-1.4782,-1.4827,-1.4873,-1.4904,-1.4929,-1.4984,-1.4974,-1.5002,-1.4986,-1.4985,-1.505,-1.5063,-1.5101,-1.5118,-1.5104,-1.5197,-1.5181,-1.5149,-1.5098,-1.5192,-1.5229,-1.5245,-1.5042,-1.504,-1.5039,-1.5038,0,0,-1.4941,-1.4959,-1.4976,-1.499,-1.5009,-1.5044,-1.5096,-1.5132,-1.5157,-1.5179,-1.5224,-1.5281,-1.5251,-1.5271,-1.5258,-1.5297,-1.539,-1.5261,-1.5261,-1.5286,-1.5494,-1.5519,-1.5538,-1.5372,-1.5375,-1.5377,-1.5492,0,-1.5055,-1.5147,-1.5131,-1.522,-1.5262,-1.5224,-1.527,-1.5287,-1.5287,-1.5322,-1.5322,-1.5363,-1.532,-1.5332,-1.5369,-1.5371,-1.5432,-1.5362,-1.5415,-1.5417,-1.5413,-1.5557,-1.5584,-1.5693,-1.5507,-1.5509,-1.5511,0,-1.5202,-1.5229,-1.5322,-1.5334,-1.5351,-1.5393,-1.5424,-1.5458,-1.5476,-1.5473,-1.5494,-1.5473,-1.5526,-1.5471,-1.5544,-1.5497,-1.5517,-1.5521,-1.5525,-1.5532,-1.5472,-1.5569,-1.5727,-1.5744,-1.5534,-1.5532,-1.5531,0,-1.531,-1.5369,-1.5433,-1.5445,-1.546,-1.5491,-1.5499,-1.5513,-1.5536,-1.5562,-1.5577,-1.5609,-1.5628,-1.5654,-1.5642,-1.5604,-1.5718,-1.5663,-1.5718,-1.5719,-1.5747,-1.5745,-1.5911,-1.5756,-1.5756,-1.5755,-1.5755,0,-1.5441,-1.55,-1.5482,-1.5521,-1.5586,-1.5566,-1.5631,-1.5634,-1.5647,-1.5687,-1.5655,-1.5693,-1.5674,-1.5711,-1.5702,-1.5764,-1.5772,-1.5772,-1.577,-1.5776,-1.5777,-1.5791,-1.5784,-1.576,-1.5759,-1.5758,-1.5757,0,-1.5574,-1.5564,-1.5631,-1.5639,-1.5642,-1.569,-1.5697,-1.5734,-1.5729,-1.578,-1.579,-1.5785,-1.5826,-1.5816,-1.5861,-1.5855,-1.5934,-1.5921,-1.5928,-1.5926,-1.5982,-1.5978,-1.6165,-1.6189,-1.6017,-1.6018,-1.602,0,-1.566,-1.5704,-1.5716,-1.574,-1.5749,-1.5788,-1.581,-1.5791,-1.5815,-1.5838,-1.5873,-1.591,-1.594,-1.6007,-1.6008,-1.6042,-1.603,-1.6093,-1.6036,-1.6041,-1.6033,-1.6032,-1.6036,-1.6106,-1.6108,-1.611,-1.6111,0,-1.5813,-1.5805,-1.5838,-1.5868,-1.5895,-1.5919,-1.5939,-1.596,-1.5943,-1.5971,-1.6013,-1.6035,-1.608,-1.6119,-1.615,-1.6158,-1.6132,-1.6129,-1.6144,-1.6153,-1.6156,-1.6156,-1.5962,-1.6125,-1.6124,-1.6123,-1.6122,-1.6121,-1.5926,-1.5964,-1.5978,-1.6015,-1.6028,-1.6047,-1.6082,-1.6081,-1.6115,-1.615,-1.6136,-1.6184,-1.6199,-1.6238,-1.6249,-1.6286,-1.6262,-1.6284,-1.6289,-1.6296,-1.6303,-1.6147,-1.6291,-1.6291,-1.629,-1.629,-1.629,0,-1.6079,-1.6085,-1.612,-1.6149,-1.6178,-1.6148,-1.6169,-1.6196,-1.6238,-1.6254,-1.6283,-1.633,-1.6366,-1.6368,-1.6402,-1.6431,-1.642,-1.6441,-1.644,-1.6442,-1.6322,-1.6306,-1.6449,-1.6449,-1.6449,-1.6449,-1.6449,-1.6449,-1.6162,-1.6225,-1.6218,-1.6286,-1.6292,-1.6338,-1.6352,-1.637,-1.6383,-1.6436,-1.6466,-1.6466,-1.6476,-1.6511,-1.6543,-1.6542,-1.6557,-1.6583,-1.6578,-1.6466,-1.6451,-1.6436,-1.6421,-1.6586,-1.6586,-1.6695,-1.6697,-1.6697]},{"header":{"parameterUnit":"m.s-1","parameterCategory":1,"la1":30.2991,"la2":30.254,"lo1":-89.0895,"lo2":-89.0444,"dy":0.0017,"dx":0.0017,"nx":28,"ny":28,"refTime":"2025-01-14T09:00:00:Z","depth":0,"parameterNumber":3,"parameterNumberName":"V-component_of_WINDS"},"data":[0,0,0,0,0,0,0,0,0,0,0,0,0,0,0,0,0,0,0,0,0,0,0,0,0,0,0,0,0,0,0,0,0,0,0,0,0,0,0,0,0,0,0,0,0,0,0,0,0,0,0,0,0,0,0,0,0,0,-5.8066,-5.8068,0,-5.8197,-5.8199,-5.82,-5.8131,-5.8127,-5.8124,-5.8121,-5.8251,-5.8257,-5.8264,0,0,0,0,0,0,0,0,0,0,0,0,0,-5.7751,-5.7758,-5.8066,-5.8068,-5.8069,-5.8197,-5.8199,-5.8201,-5.8131,-5.8127,-5.8123,-5.8119,-5.8248,-5.8256,-5.8264,0,0,0,0,0,0,0,0,0,0,0,0,0,-5.7886,-5.776,-5.8066,-5.805,-5.805,-5.8197,-5.8199,-5.8201,-5.8132,-5.8127,-5.8122,-5.8117,-5.8246,-5.8256,-5.8266,-5.8433,0,0,-5.8296,-5.8301,0,0,0,0,0,0,0,0,-5.7878,-5.7897,-5.8051,-5.8052,-5.8052,-5.8142,-5.8135,-5.8279,-5.8134,-5.8101,-5.812,-5.8114,-5.8219,-5.8231,-5.8267,-5.8439,-5.8445,-5.8297,-5.8303,-5.8308,-5.8311,0,0,0,0,0,0,0,-5.7869,-5.7891,-5.8118,-5.8053,-5.8054,-5.8035,-5.8049,-5.8162,-5.8188,-5.8104,-5.8099,-5.8116,-5.8218,-5.8257,-5.8269,-5.8447,-5.8297,-5.8306,-5.8312,-5.8316,-5.8763,-5.8768,0,0,0,0,0,0,-5.7861,-5.7884,-5.8114,-5.8122,-5.795,-5.8045,-5.806,-5.8119,-5.8186,-5.8192,-5.812,-5.8112,-5.8242,-5.8257,-5.8273,-5.8474,-5.8308,-5.8317,-5.8323,-5.8757,-5.8764,-5.877,0,0,0,0,0,0,-5.7855,-5.7882,-5.8108,-5.8002,-5.8029,-5.8056,-5.8123,-5.8124,-5.8163,-5.8199,-5.8202,-5.8156,-5.8239,-5.8259,-5.8394,-5.8478,-5.8322,-5.8331,-5.875,-5.8759,-5.8767,-5.8878,0,0,0,0,0,0,-5.7846,-5.788,-5.7946,-5.8004,-5.8035,-5.8229,-5.8128,-5.813,-5.8181,-5.8172,-5.8233,-5.8238,-5.8236,-5.838,-5.8404,-5.8489,-5.8339,-5.8743,-5.8754,-5.8765,-5.8867,-5.8889,-5.8908,0,0,0,0,0,-5.7835,-5.7971,-5.7949,-5.7977,-5.8117,-5.8234,-5.8251,-5.8248,-5.8188,-5.8253,-5.8276,-5.8236,-5.8465,-5.8394,-5.8421,-5.851,-5.8738,-5.8751,-5.8764,-5.8857,-5.8885,-5.8908,0,0,0,0,0,0,-5.792,-5.7978,-5.7955,-5.8114,-5.817,-5.8222,-5.8304,-5.8277,-5.8349,-5.8338,-5.8328,-5.8342,-5.8483,-5.851,-5.843,-5.8676,-5.8592,-5.8611,-5.8653,-5.868,-5.87,-5.8691,-5.8347,0,0,0,0,0,-5.7958,-5.8049,-5.8094,-5.8229,-5.8259,-5.8277,-5.8327,-5.832,-5.8376,-5.8399,-5.8431,-5.8487,-5.8571,-5.8626,-5.8706,-5.887,-5.8882,-5.8944,-5.8965,-5.8982,-5.8999,-5.9087,-5.9115,-5.8813,-5.8813,-5.8813,0,0,-5.8036,-5.8079,-5.8136,-5.8248,-5.829,-5.8383,-5.8297,-5.8399,-5.8468,-5.8414,-5.8544,-5.857,-5.8631,-5.8781,-5.8849,-5.8808,-5.9084,-5.8998,-5.9012,-5.9019,-5.9103,-5.9132,-5.9157,-5.8822,-5.8821,-5.8819,0,0,-5.8226,-5.8268,-5.8386,-5.843,-5.8495,-5.8506,-5.8535,-5.8592,-5.8607,-5.8738,-5.8699,-5.8779,-5.8925,-5.897,-5.9012,-5.9218,-5.9184,-5.9244,-5.9353,-5.9439,-5.9463,-5.9484,-5.9558,-5.9584,-5.9261,-5.9261,-5.9261,0,-5.8315,-5.8455,-5.8449,-5.8555,-5.8605,-5.8561,-5.868,-5.8722,-5.881,-5.8845,-5.8797,-5.8979,-5.9017,-5.9177,-5.9227,-5.9263,-5.9294,-5.9238,-5.946,-5.9481,-5.9501,-5.9571,-5.9599,-5.9268,-5.9267,-5.9266,-5.9266,0,-5.8561,-5.8659,-5.8745,-5.8833,-5.8892,-5.9004,-5.9013,-5.9073,-5.906,-5.9076,-5.9209,-5.9253,-5.934,-5.9377,-5.9365,-5.9536,-5.9508,-5.9461,-5.9376,-5.9536,-5.9602,-5.9629,-5.9278,-5.9275,-5.9273,-5.9271,0,0,-5.8809,-5.8892,-5.8924,-5.8963,-5.9032,-5.9107,-5.9215,-5.9302,-5.9354,-5.9415,-5.9506,-5.963,-5.9586,-5.9634,-5.9626,-5.9702,-5.9862,-5.9645,-5.9646,-5.9684,-6.0053,-6.0089,-6.012,-5.984,-5.9845,-5.9849,-6.0048,0,-5.9004,-5.9197,-5.9194,-5.9372,-5.9462,-5.9421,-5.9516,-5.9568,-5.9585,-5.9662,-5.968,-5.9768,-5.9704,-5.9733,-5.9806,-5.9828,-5.9936,-5.9813,-5.9923,-5.9927,-5.991,-6.0155,-6.0193,-6.0379,-6.0074,-6.0078,-6.0081,0,-5.9258,-5.933,-5.9517,-5.9573,-5.961,-5.9696,-5.9775,-5.985,-5.9907,-5.9914,-5.9967,-5.9947,-6.0056,-5.9968,-6.0117,-6.0033,-6.0078,-6.0095,-6.0102,-6.0113,-6.0015,-6.0172,-6.0438,-6.0466,-6.0122,-6.0118,-6.0115,0,-5.9421,-5.9564,-5.9695,-5.9729,-5.9797,-5.9858,-5.9889,-5.9941,-5.9993,-6.0061,-6.0095,-6.0175,-6.0218,-6.028,-6.0281,-6.0217,-6.0432,-6.0344,-6.044,-6.044,-6.0488,-6.0485,-6.0765,-6.0516,-6.0516,-6.0515,-6.0514,0,-5.964,-5.9756,-5.9769,-5.9849,-5.9978,-5.9973,-6.0099,-6.0124,-6.0171,-6.0254,-6.0223,-6.0301,-6.0298,-6.0377,-6.0378,-6.0502,-6.0522,-6.0529,-6.0529,-6.0533,-6.0532,-6.0563,-6.055,-6.0522,-6.0521,-6.0519,-6.0518,0,-5.9845,-5.9858,-5.9997,-6.005,-6.0066,-6.0159,-6.0203,-6.0279,-6.0293,-6.0399,-6.0423,-6.0445,-6.0536,-6.0543,-6.0649,-6.065,-6.0799,-6.0784,-6.0781,-6.0779,-6.0874,-6.0866,-6.1184,-6.1226,-6.0949,-6.0952,-6.0954,0,-5.9984,-6.0073,-6.0135,-6.019,-6.0224,-6.0312,-6.0366,-6.0363,-6.042,-6.0491,-6.0558,-6.0647,-6.0718,-6.0866,-6.089,-6.097,-6.0957,-6.1063,-6.0969,-6.097,-6.0959,-6.0954,-6.0963,-6.1081,-6.1085,-6.1087,-6.1089,0,-6.023,-6.0232,-6.0311,-6.0393,-6.0458,-6.0522,-6.0581,-6.0627,-6.0631,-6.0696,-6.079,-6.0846,-6.0954,-6.1042,-6.1121,-6.115,-6.1121,-6.1118,-6.1145,-6.1151,-6.1146,-6.115,-6.0832,-6.1111,-6.1109,-6.1107,-6.1106,-6.1105,-6.0406,-6.0483,-6.0539,-6.0628,-6.0673,-6.0729,-6.0803,-6.0827,-6.0906,-6.0995,-6.0988,-6.1092,-6.1145,-6.1248,-6.1284,-6.1364,-6.1328,-6.1366,-6.1376,-6.1386,-6.1396,-6.1132,-6.1378,-6.1377,-6.1377,-6.1376,-6.1376,0,-6.0651,-6.0685,-6.0767,-6.0852,-6.0922,-6.0889,-6.0952,-6.1013,-6.1105,-6.1158,-6.1229,-6.1337,-6.1422,-6.1453,-6.1536,-6.1594,-6.1582,-6.1616,-6.1611,-6.1619,-6.1424,-6.1393,-6.1624,-6.1624,-6.1623,-6.1623,-6.1623,-6.1623,-6.0786,-6.0915,-6.0923,-6.1073,-6.1106,-6.1209,-6.1248,-6.13,-6.1342,-6.1464,-6.1536,-6.1556,-6.1599,-6.1685,-6.1761,-6.1768,-6.18,-6.1839,-6.184,-6.1657,-6.1632,-6.1609,-6.158,-6.1846,-6.1846,-6.2029,-6.203,-6.2032]}]]